Weather Roundup
Issued by NWS Chicago, IL

Home | Current Version | Previous Version | Graphics & Text | Print | Product List | Glossary On
Versions: 1 2 3 4 5 6 7 8 9 10 11 12 13 14 15 16 17 18 19 20 21 22 23 24 25 26 27 28 29 30 31 32 33 34 35 36 37 38 39 40 41 42 43 44 45 46 47 48 49 50
840
NZUS59 KLOT 281304
HRRLOT

CHICAGO AREA WEATHER ROUNDUP
NATIONAL WEATHER SERVICE CHICAGO/ROMEOVILLE IL
800 AM CDT SUN MAY 28 2017

NOTE: "FAIR" INDICATES FEW OR NO CLOUDS BELOW 12,000 FEET WITH NO
SIGNIFICANT WEATHER AND/OR OBSTRUCTIONS TO VISIBILITY.

* THESE STATIONS ARE NOT UNDER NWS QUALITY CONTROL. THEY ALSO MAY NOT
  REPORT WEATHER SUCH AS PRECIPITATION OR FOG.

ILZ005-006-012>014-019>023-281400-
NORTHEAST ILLINOIS

CITY           SKY/WX    TMP DP  RH WIND       PRES   REMARKS
OHARE          CLOUDY    65  57  75 CALM      29.74R
MIDWAY         PTSUNNY   66  60  81 S6        29.73S
AURORA         PTSUNNY   63  60  90 NW3       29.76R FOG
LANSING*       CLOUDY    62  61  96 CALM      29.74S FOG
JOLIET*        CLOUDY    65  62  91 S5        29.74S FOG
WAUKEGAN       CLOUDY    64  59  83 S6        29.74R
DUPAGE AIRPORT MOSUNNY   64  60  87 CALM      29.75R FOG
WHEELING       MOSUNNY   63  58  83 CALM      29.76R
KANKAKEE*      PTSUNNY   65  64  97 CALM      29.74S
MORRIS*        CLOUDY    63  60  89 CALM      29.74R FOG
LEWIS AIRPORT* MOSUNNY   63  62  98 S7        29.74S FOG
NORTHERLY ISL    N/A     60  54  80 SE2         N/A
$$

WIZ051-052-058>065-066-070>072-281400-
SOUTHEAST WISCONSIN

CITY           SKY/WX    TMP DP  RH WIND       PRES   REMARKS
MILWAUKEE      LGT RAIN  62  56  80 NW3       29.76R
KENOSHA*       CLOUDY    61  56  83 SW3       29.75R
RACINE*        CLOUDY    61  55  81 N3        29.77R
WAUKESHA       RAIN      57  57 100 NW8       29.78R FOG
$$

INZ001>003-010>013-019-020-281400-
NORTHWEST INDIANA

CITY           SKY/WX    TMP DP  RH WIND       PRES   REMARKS
GARY*          CLOUDY    63  61  94 CALM      29.75R
MICHIGAN CITY* NOT AVBL
RENSSELAER*    NOT AVBL
VALPARAISO     CLOUDY    65  61  87 CALM      29.75R
$$

LMZ740>746-281400-
SOUTHERN LAKE MICHIGAN

STATION/POSITION TIME  SKY/WX   TEMP WIND        PRES    VSBY
                                AIR  DIR/SP/G
                 (UTC)          (F)  (DEG/KT/KT) (MB)    (MI)
HARRISON CRIB    1230            57  190/  5/  5   N/A
BURNHAM HARBOR   1300            60  160/  1/  2   N/A
CALUMET HARBOR   1230            60  190/  2/  3 1006.7R
BURNS HARBOR     1240            65  170/  5/  9 1007.8R
MICHIGAN CITY    1230            63  140/  7/  8   N/A
$$

ABBREVIATIONS USED IN REMARKS
   TC - TEMPERATURE IN CELSIUS
  WCI - WIND CHILL INDEX
   HX - HEAT INDEX
  VSB - VISIBILITY
$$




USA.gov is the U.S. government's official web portal to all federal, state and local government web resources and services.